Showing default

METEOR 3M, 27001

Orbit data source: Space-Track

METEOR 3M, 27001 is a Commonwealth of Independent States-origin payload satellite in SSO that was launched on Mon, 10 Dec 2001 UTC via a ZENIT-2 launch vehicle from the Tyuratam Missile And Space Complex (TTMTR). Payloads include a variety of satellites, spacecraft, and rockets equipped with specific instruments for various scientific and technological missions. These include communications satellites like Starlink; space stations such as the ISS; scientific satellites like the Hubble; Earth observation satellites from companies like Planet Labs, Umbra, and HawkEye 360; GPS; miniature CubeSats for education and research; and military/defense satellites.

Loading next visibility...
METEOR 3M details
Identifier
27001, 2001-056A
Orbit
SSO
Last TLE update6 hours ago
Origin
Flag of CISRGMS/VNIEMR (CIS)
ManufacturerVNIIEM
MissionCivil Weather
Bus & MotorMETEOR-3, Unknown motor
Mass2,476 kg wet, ~2,300 kg dry
Launch date (UTC)
2001-12-10 (23 years ago)
Launch vehicle
ZENIT-2
Launch site
Tyuratam Missile And Space Complex (TTMTR)
Object type
Payload
Rocket body
Debris
Shape & HBRCyl + 2 Pan, 14 m
Radar Cross Section26.744 m², Large (>1 m²)

Expand to show TLE details & history

TLE from 6 hours ago
0 METEOR 3M
1 27001U 01056A   24361.44511770  .00000035  00000-0  94350-4 0  9990
2 27001  99.7925 167.5216 0014195 130.0026 248.3410 13.68987553151399
Epoch: 2024-12-26T10:40Z
Definitive object data (Epoch: 2024-12-26T10:40:58.169Z)
Latitude17.9113°
Longitude-91.32648°
Altitude1,009.339 km
Speed7.347 km/s
True Right ascension10h 57m 21s
True Declination17° 48' 52"
Sunlit
Object was in daylight at TLE epoch
Visualization TLE readout
Latitude-51.35201°
Longitude79.72225°
Altitude1,025.362 km
Speed7.337 km/s
Apparent Right ascension01h 27m 53s
Apparent Declination-55° 32' 52"
Sunlit
Object is in daylight
Visualization observer readout
Local Sidereal Time16:21:25
Azimuth133.492° SE
Elevation-57.616°
Doppler factor1
Orbital elements
Apogee altitude1,010.963 km
Perigee altitude990.015 km
Semi-major axis7,378.626 km
Eccentricity0.0014195
Inclination99.7925°
RAAN167.5216°
Arg. of periapsis130.0026°
True anomaly248.18992°
Mean anomaly248.341°
Eccentric anomaly248.26545°
Mean motion3.42436 °/min
BSTAR0.00009435
Orbital period105.13 mins
Loading maneuver chart data...
Loading historical data...
Loading historical data...
Loading historical data...
Loading historical data...
Loading historical data...
Loading historical data...
Loading historical data...

METEOR 3M Visibility forecast

Observer location: undefined°, undefined

Span
Click to sort rows by Start time (UTC) header in descending order
Start Az.
Max El. time (UTC)
Max El. Az.
Max El.
End time (UTC)
End Az.
11 mins2024-12-26 23:28:09.692Z32.524° NE2024-12-26 23:33:09.692Z88.727° E30.997°2024-12-26 23:39:09.692Z164.474° S
9 mins2024-12-27 01:13:09.692Z349.405° N2024-12-27 01:17:09.692Z295.741° NW29.359°2024-12-27 01:22:09.692Z234.924° WSW
5 mins2024-12-27 09:36:09.692Z77.022° E2024-12-27 09:38:09.692Z54.689° ENE15.909°2024-12-27 09:41:09.692Z24.159° NE
10 mins2024-12-27 11:16:09.692Z167.444° S2024-12-27 11:21:09.692Z304.803° NW44.508°2024-12-27 11:26:09.692Z343.041° N
|